Flag for U.S.A. Weather past 2 weeks in Hayward, California, U.S.A.

Now
50 °F

Clear.


Feels Like: 50 °F
Forecast: 49 / 73 °F
Wind: No wind

Location: Hayward Air Terminal


UV Index: 5 (Moderate)

Visibility: 8 mi


Pressure: 29.95 "Hg

Humidity: 93%

Dew point: 48 °F

Location of HaywardLocation

Historic Weather in Hayward

°F

Hayward temperature yesterday

Maximum temperature yesterday: 63 °F (at 3:54 PM)
Minimum temperature yesterday: 49 °F (at 3:54 AM)
Average temperature yesterday: 54 °F

Past Weeks' High & Low Weather Summary

 TemperatureHumidityPressure
High78 °F (Apr 7, 3:54 PM)100% (Apr 4, 7:54 AM)30.26 "Hg (Apr 4, 7:54 AM)
Low43 °F (Apr 2, 12:54 AM)40% (Apr 7, 3:54 PM)29.87 "Hg (Apr 1, 3:54 PM)
Average55 °F80%30.05 "Hg
* Reported Apr 1 12:54 AM — Apr 16 12:54 AM, Hayward, Weather by CustomWeather, © 2014

Note: Actual official high and low records may vary slightly from our data, if they occured in-between our weather recording intervals... More about our weather records

Advertising

Historic Weather Conditions — Data for Previous 24 hours

 ConditionsComfort  
Time TempWeatherWind HumidityBarometerVisibility
12:54 AM
Apr 16
50 °FClear.No wind93%29.95 "Hg8 mi
11:54 PM
Apr 15
51 °FClear.7 mph92%29.95 "Hg9 mi
10:54 PM51 °FClear.7 mph89%29.96 "Hg9 mi
9:54 PM52 °FClear.7 mph86%29.97 "Hg9 mi
8:54 PM53 °FClear.8 mph83%29.97 "Hg10 mi
7:54 PM53 °FSunny.N/A83%29.94 "Hg9 mi
6:54 PM55 °FSunny.13 mph80%29.94 "Hg9 mi
5:54 PM59 °FSunny.14 mph72%29.96 "Hg10 mi
3:54 PM63 °FSunny.12 mph68%29.97 "Hg10 mi
2:54 PM62 °FSunny.9 mph70%29.99 "Hg10 mi
1:54 PM61 °FSunny.9 mph70%30.01 "Hg10 mi
12:54 PM60 °FSunny.10 mph75%30.03 "Hg10 mi
11:54 AM58 °FSunny.7 mph81%30.04 "Hg10 mi
10:54 AM56 °FSunny.6 mph84%30.05 "Hg10 mi
9:54 AM54 °FPassing clouds.3 mph90%30.05 "Hg10 mi
8:54 AM52 °FPartly sunny.3 mph93%30.06 "Hg10 mi
7:54 AM51 °FPartly sunny.5 mph96%30.07 "Hg10 mi
6:54 AM51 °FOvercast.N/A96%30.05 "Hg10 mi
5:54 AM51 °FOvercast.5 mph96%30.05 "Hg10 mi
4:54 AM50 °FOvercast.No wind100%30.06 "Hg9 mi
3:54 AM49 °FOvercast.No wind100%30.07 "Hg10 mi
2:54 AM50 °FOvercast.6 mph100%30.08 "Hg10 mi
1:54 AM50 °FOvercast.6 mph100%30.09 "Hg10 mi
Weather by CustomWeather, © 2014

See weather overview